Location: Campolattaro
(41.2833°N, 14.7333°E)
Time: 07:05:01
(UTC+00:00)

Cosmos 1833 Rocket - Pass Details

Date: 19 May 2025
Orbit: 831 x 839 km, 71.0° (Epoch: 14 June)

Event Time Altitude Azimuth Distance (km) Brightness Sun altitude
Rises 20:20:20 0° 214° (SW) 3,375 5.7 -18.7°
Reaches altitude 10° 20:22:49 10° 219° (SW) 2,445 5.0 -19.0°
Maximum altitude 20:28:19 57° 297° (WNW) 986 3.3 -19.7°
Drops below altitude 10° 20:33:53 10° 16° (NNE) 2,461 5.6 -20.3°
Sets 20:36:23 0° 21° (NNE) 3,399 6.3 -20.6°
